Location: Banios
(43.0451°N, 0.2335°E)
Time: 04:13:34
(UTC+00:00)

METEOR-M - Pass Details

Date: 25 January 2021
Orbit: 816 x 819 km, 98.5° (Epoch: 26 February)

Event Time Altitude Azimuth Distance (km) Brightness Sun altitude
Rises 05:10:07 0° 8° (N) 3,360 7.4 -23.8°
Reaches altitude 10° 05:12:32 10° 3° (N) 2,423 6.6 -23.4°
Maximum altitude 05:17:41 50° 290° (WNW) 1,031 4.2 -22.4°
Enters shadow 05:17:44 50° 288° (WNW) 1,031 4.2 -22.4°
